THY73 LTFG-LTAF

Flight info

Callsign THY73
Flight time 0h 31m
Altitude 23000
Route ELROP UT339 MUT UW74 MANAZ
Aircraft A320/M-SDE3FGHIRWY/LB1

Departure

Time 2026-05-09 11:19
Airport Gazipaşa-Alanya Airport (LTFG)

Arrival

Time 2026-05-09 11:50
Airport Adana Şakirpaşa Airport (LTAF)
Time Latitude Longitude Altitude Speed Heading
2026-05-09 10:57 36.29797 32.30339 127 ft 0 kts 172°
2026-05-09 11:10 36.29798 32.30339 127 ft 0 kts 172°
2026-05-09 11:13 36.29806 32.30337 123 ft 2 kts 172°
2026-05-09 11:13 36.29823 32.30336 123 ft 3 kts 197°
2026-05-09 11:13 36.29839 32.30346 123 ft 3 kts 232°
2026-05-09 11:14 36.29847 32.30363 126 ft 0 kts 264°
2026-05-09 11:15 36.29846 32.30362 125 ft 1 kts 264°
2026-05-09 11:15 36.29843 32.30322 125 ft 9 kts 264°
2026-05-09 11:15 36.29833 32.30230 126 ft 12 kts 262°
2026-05-09 11:16 36.29859 32.30157 127 ft 11 kts 346°
2026-05-09 11:16 36.29940 32.30162 124 ft 11 kts 45°
2026-05-09 11:16 36.29954 32.30275 127 ft 16 kts 82°
2026-05-09 11:16 36.29973 32.30434 123 ft 21 kts 81°
2026-05-09 11:17 36.29997 32.30627 127 ft 24 kts 81°
2026-05-09 11:17 36.30022 32.30844 128 ft 26 kts 81°
2026-05-09 11:17 36.30058 32.30977 129 ft 14 kts 58°
2026-05-09 11:17 36.30042 32.31034 130 ft 6 kts 214°
2026-05-09 11:18 36.30037 32.30967 128 ft 6 kts 262°
2026-05-09 11:18 36.30036 32.30959 128 ft 0 kts 262°
2026-05-09 11:18 36.30036 32.30955 128 ft 8 kts 262°
2026-05-09 11:19 36.29987 32.30555 125 ft 83 kts 261°
2026-05-09 11:19 36.29873 32.29603 117 ft 138 kts 262°
2026-05-09 11:19 36.29731 32.28362 531 ft 146 kts 260°
2026-05-09 11:19 36.29586 32.27115 1215 ft 145 kts 262°
2026-05-09 11:20 36.29437 32.25890 1855 ft 145 kts 259°
2026-05-09 11:20 36.29274 32.24545 1997 ft 172 kts 260°
2026-05-09 11:20 36.29087 32.22962 2251 ft 195 kts 261°
2026-05-09 11:20 36.28885 32.21194 2563 ft 220 kts 261°
2026-05-09 11:21 36.28403 32.19337 3092 ft 235 kts 233°
2026-05-09 11:21 36.27089 32.18137 3688 ft 251 kts 198°
2026-05-09 11:21 36.25295 32.17966 4310 ft 267 kts 174°
2026-05-09 11:21 36.23441 32.18370 5190 ft 273 kts 167°
2026-05-09 11:22 36.21608 32.19027 6084 ft 277 kts 154°
2026-05-09 11:22 36.20098 32.20504 6909 ft 280 kts 128°
2026-05-09 11:22 36.19137 32.22603 7737 ft 283 kts 106°
2026-05-09 11:22 36.18907 32.25014 8555 ft 285 kts 83°
2026-05-09 11:23 36.19150 32.27461 9399 ft 288 kts 80°
2026-05-09 11:23 36.19439 32.29934 10198 ft 293 kts 79°
2026-05-09 11:23 36.19757 32.32526 10489 ft 316 kts 79°
2026-05-09 11:23 36.20101 32.35319 10687 ft 340 kts 79°
2026-05-09 11:24 36.20464 32.38318 10925 ft 362 kts 80°
2026-05-09 11:24 36.20836 32.41442 11459 ft 371 kts 80°
2026-05-09 11:24 36.21209 32.44621 12102 ft 376 kts 80°
2026-05-09 11:24 36.21599 32.47809 12730 ft 381 kts 77°
2026-05-09 11:25 36.22402 32.50940 13377 ft 384 kts 63°
2026-05-09 11:25 36.23785 32.53767 14023 ft 386 kts 49°
2026-05-09 11:25 36.25679 32.56117 14623 ft 386 kts 35°
2026-05-09 11:25 36.27962 32.57848 15181 ft 385 kts 21°
2026-05-09 11:26 36.30496 32.58894 15780 ft 385 kts 12°
2026-05-09 11:26 36.33104 32.59729 16384 ft 388 kts 12°
2026-05-09 11:26 36.35733 32.60568 17030 ft 391 kts 11°
2026-05-09 11:26 36.38375 32.61415 17688 ft 394 kts 11°
2026-05-09 11:27 36.41052 32.62273 18354 ft 398 kts 11°
2026-05-09 11:27 36.43744 32.63133 18923 ft 401 kts 11°
2026-05-09 11:27 36.46448 32.64064 19467 ft 407 kts 16°
2026-05-09 11:27 36.49045 32.65543 20016 ft 415 kts 26°
2026-05-09 11:28 36.51413 32.67655 20531 ft 425 kts 38°
2026-05-09 11:28 36.53450 32.70359 21043 ft 434 kts 49°
2026-05-09 11:28 36.55201 32.73445 21520 ft 438 kts 51°
2026-05-09 11:28 36.56949 32.76570 21988 ft 442 kts 51°
2026-05-09 11:29 36.58714 32.79719 22433 ft 446 kts 51°
2026-05-09 11:29 36.60497 32.82895 22850 ft 449 kts 51°
2026-05-09 11:29 36.62289 32.86085 23087 ft 451 kts 51°
2026-05-09 11:29 36.64108 32.89320 23122 ft 462 kts 51°
2026-05-09 11:30 36.65976 32.92645 23120 ft 473 kts 51°
2026-05-09 11:30 36.67872 32.96020 23114 ft 478 kts 51°
2026-05-09 11:30 36.69775 32.99423 23114 ft 479 kts 51°
2026-05-09 11:30 36.71683 33.02847 23113 ft 480 kts 52°
2026-05-09 11:31 36.73584 33.06265 23108 ft 480 kts 52°
2026-05-09 11:31 36.75461 33.09643 23108 ft 481 kts 51°
2026-05-09 11:31 36.77363 33.13068 23100 ft 480 kts 51°
2026-05-09 11:31 36.79266 33.16493 23107 ft 481 kts 52°
2026-05-09 11:32 36.81171 33.19922 23106 ft 481 kts 52°
2026-05-09 11:32 36.83074 33.23359 23105 ft 481 kts 53°
2026-05-09 11:32 36.84711 33.27014 23105 ft 485 kts 63°
2026-05-09 11:32 36.85888 33.30974 23099 ft 487 kts 72°
2026-05-09 11:33 36.86568 33.35132 23100 ft 490 kts 81°
2026-05-09 11:33 36.86817 33.39387 23099 ft 491 kts 85°
2026-05-09 11:33 36.87232 33.47887 23100 ft 491 kts 85°
2026-05-09 11:34 36.87446 33.52144 23099 ft 491 kts 85°
2026-05-09 11:34 36.87659 33.56406 23099 ft 491 kts 85°
2026-05-09 11:34 36.87869 33.60654 23101 ft 491 kts 85°
2026-05-09 11:34 36.88079 33.64927 22908 ft 495 kts 85°
2026-05-09 11:35 36.88287 33.69212 22325 ft 493 kts 85°
2026-05-09 11:35 36.88483 33.73406 21690 ft 488 kts 85°
2026-05-09 11:35 36.88675 33.77617 21069 ft 482 kts 85°
2026-05-09 11:35 36.88863 33.81771 20456 ft 477 kts 85°
2026-05-09 11:36 36.89052 33.85885 19855 ft 472 kts 85°
2026-05-09 11:36 36.89240 33.89950 19264 ft 466 kts 85°
2026-05-09 11:36 36.89425 33.93971 18686 ft 461 kts 85°
2026-05-09 11:36 36.89605 33.97953 18015 ft 456 kts 85°
2026-05-09 11:37 36.89782 34.01881 17285 ft 450 kts 85°
2026-05-09 11:37 36.89953 34.05755 16564 ft 444 kts 85°
2026-05-09 11:37 36.90120 34.09579 15874 ft 439 kts 85°
2026-05-09 11:37 36.90285 34.13361 15192 ft 434 kts 85°
2026-05-09 11:38 36.90449 34.17108 14526 ft 430 kts 85°
2026-05-09 11:38 36.90613 34.20821 13779 ft 427 kts 85°
2026-05-09 11:38 36.90774 34.24525 12933 ft 426 kts 86°
2026-05-09 11:38 36.90930 34.28208 12184 ft 422 kts 86°
2026-05-09 11:39 36.91084 34.31852 11512 ft 418 kts 86°
2026-05-09 11:39 36.91234 34.35420 11303 ft 402 kts 86°
2026-05-09 11:39 36.91371 34.38760 11149 ft 376 kts 86°
2026-05-09 11:40 36.91299 34.44926 10893 ft 333 kts 92°
2026-05-09 11:40 36.91172 34.47765 10768 ft 323 kts 92°
2026-05-09 11:40 36.91049 34.50519 10632 ft 311 kts 92°
2026-05-09 11:40 36.90932 34.53179 10330 ft 304 kts 92°
2026-05-09 11:41 36.90820 34.55798 10263 ft 301 kts 91°
2026-05-09 11:41 36.90706 34.58413 10172 ft 301 kts 92°
2026-05-09 11:41 36.90589 34.61019 10037 ft 301 kts 92°
2026-05-09 11:41 36.90470 34.63651 9595 ft 304 kts 92°
2026-05-09 11:42 36.90351 34.66272 9314 ft 301 kts 92°
2026-05-09 11:42 36.90234 34.68873 8780 ft 297 kts 91°
2026-05-09 11:42 36.90117 34.71413 8385 ft 291 kts 91°
2026-05-09 11:42 36.89942 34.73916 8208 ft 289 kts 95°
2026-05-09 11:43 36.89688 34.76414 7952 ft 291 kts 97°
2026-05-09 11:43 36.89400 34.78925 7641 ft 290 kts 97°
2026-05-09 11:43 36.89104 34.81409 7326 ft 286 kts 97°
2026-05-09 11:43 36.88816 34.83851 6746 ft 283 kts 97°
2026-05-09 11:44 36.88538 34.86257 6221 ft 280 kts 97°
2026-05-09 11:44 36.88264 34.88661 5622 ft 277 kts 97°
2026-05-09 11:44 36.88002 34.90973 5099 ft 274 kts 97°
2026-05-09 11:44 36.87742 34.93292 4621 ft 274 kts 97°
2026-05-09 11:45 36.87483 34.95625 4434 ft 268 kts 98°
2026-05-09 11:45 36.87236 34.97856 4301 ft 250 kts 97°
2026-05-09 11:45 36.87003 34.99941 4184 ft 237 kts 97°
2026-05-09 11:45 36.86781 35.01939 4091 ft 230 kts 98°
2026-05-09 11:46 36.86562 35.03909 3994 ft 229 kts 98°
2026-05-09 11:46 36.86342 35.05875 3888 ft 228 kts 97°
2026-05-09 11:46 36.86435 35.07831 3783 ft 228 kts 71°
2026-05-09 11:46 36.87191 35.09564 3482 ft 229 kts 54°
2026-05-09 11:47 36.88165 35.11159 3154 ft 231 kts 53°
2026-05-09 11:47 36.89126 35.12738 2846 ft 225 kts 54°
2026-05-09 11:47 36.90045 35.14276 2577 ft 218 kts 54°
2026-05-09 11:47 36.90947 35.15795 2195 ft 218 kts 54°
2026-05-09 11:48 36.91843 35.17301 1879 ft 211 kts 54°
2026-05-09 11:48 36.92686 35.18719 1598 ft 195 kts 54°
2026-05-09 11:48 36.93461 35.20024 1398 ft 180 kts 54°
2026-05-09 11:48 36.94191 35.21253 1132 ft 171 kts 54°
2026-05-09 11:49 36.94871 35.22398 935 ft 159 kts 54°
2026-05-09 11:49 36.95524 35.23499 736 ft 155 kts 54°
2026-05-09 11:49 36.96156 35.24565 537 ft 149 kts 54°
2026-05-09 11:49 36.96759 35.25593 338 ft 144 kts 54°
2026-05-09 11:50 36.97350 35.26598 169 ft 143 kts 53°
2026-05-09 11:50 36.97934 35.27571 73 ft 130 kts 55°
2026-05-09 11:50 36.98378 35.28322 69 ft 86 kts 53°
2026-05-09 11:50 36.98660 35.28794 69 ft 47 kts 53°
2026-05-09 11:51 36.98829 35.29081 69 ft 33 kts 55°
2026-05-09 11:51 36.98919 35.29240 74 ft 14 kts 54°
2026-05-09 11:51 36.98880 35.29337 68 ft 17 kts 144°
2026-05-09 11:51 36.98773 35.29435 72 ft 20 kts 140°
2026-05-09 11:52 36.98669 35.29533 72 ft 15 kts 143°
2026-05-09 11:52 36.98583 35.29545 72 ft 12 kts 178°
2026-05-09 11:52 36.98555 35.29617 72 ft 6 kts 98°
2026-05-09 11:52 36.98553 35.29638 72 ft 0 kts 98°